{"data":{"norad_id":69474,"intl_designator":"2026-129A","name":"TJS-25","alt_names":[],"object_type":"PAYLOAD","status":"ACTIVE","operator":null,"country":"PRC","launch_date":"2026-06-11","launch_site_code":"WSC","launch_vehicle":null,"mission":null,"orbit_class":"UNKNOWN","rcs_meters":null,"size_class":null,"mass_kg":null,"dimensions":null,"purposes":[],"wikipedia_slug":null,"has_3d_model":false,"image_url":null,"decayed_at":null,"tle_current":{"epoch":"2026-09-20T00:23:08.661408Z","epoch_age_seconds":75209,"freshness":"FRESH","line1":"1 69474U 26129A   26263.01607247 -.00000372  00000+0  00000+0 0  9997","line2":"2 69474   5.8776 330.6242 0004457 277.6369 236.6952  1.00272716  1016","mean_motion":1.00272716,"eccentricity":0.0004457,"inclination_deg":5.8776,"raan_deg":330.6242,"arg_perigee_deg":277.6369,"mean_anomaly_deg":236.6952,"bstar":0,"rev_number":101,"period_min":1436.0835703303,"perigee_km":35767.541265402,"apogee_km":35805.126674825,"semimajor_km":42164.470970114,"source":"CELESTRAK","updated_at":"2026-09-20T09:00:24.906654Z"}}}